Time,TemperatureF,DewpointF,PressureIn,WindDirection,WindDirectionDegrees,WindSpeedMPH,WindSpeedGustMPH,Humidity,HourlyPrecipIn,Conditions,Clouds,dailyrainin,SolarRadiationWatts/m^2,SoftwareType,DateUTC
2013-09-14 00:00:00,54.3,47.6,30.07,NW,320,0.0,4.0,78,0.00,,---,0.00,0.00,VWS V14.00,2013-09-14 04:00:00,
2013-09-14 00:04:00,54.4,47.7,30.07,ESE,121,5.0,5.0,78,0.00,,---,0.00,0.00,VWS V14.00,2013-09-14 04:04:00,
2013-09-14 00:05:00,54.4,47.7,30.07,ESE,107,0.0,7.0,78,0.00,,---,0.00,0.00,VWS V14.00,2013-09-14 04:05:00,
2013-09-14 00:09:00,54.4,47.7,30.07,ESE,107,0.0,7.0,78,0.00,,---,0.00,0.00,VWS V14.00,2013-09-14 04:09:00,
2013-09-14 00:14:00,54.4,47.7,30.07,ESE,112,0.0,2.0,78,0.00,,---,0.00,0.00,VWS V14.00,2013-09-14 04:14:00,
2013-09-14 00:16:00,54.4,47.7,30.07,ESE,112,0.0,0.0,78,0.00,,---,0.00,0.00,VWS V14.00,2013-09-14 04:16:00,
2013-09-14 00:21:00,54.2,47.5,30.07,NNE,15,0.0,4.0,78,0.00,,---,0.00,0.00,VWS V14.00,2013-09-14 04:21:00,
2013-09-14 00:26:00,54.1,47.4,30.07,ESE,109,0.0,0.0,78,0.00,,---,0.00,0.00,VWS V14.00,2013-09-14 04:26:00,
2013-09-14 00:31:00,54.0,47.3,30.07,ESE,109,0.0,0.0,78,0.00,,---,0.00,0.00,VWS V14.00,2013-09-14 04:31:00,
2013-09-14 00:36:00,53.9,47.5,30.08,ESE,109,0.0,0.0,79,0.00,,---,0.00,0.00,VWS V14.00,2013-09-14 04:36:00,
2013-09-14 00:41:00,53.8,47.5,30.07,ESE,109,0.0,4.0,79,0.00,,---,0.00,0.00,VWS V14.00,2013-09-14 04:41:00,
2013-09-14 00:46:00,53.7,47.3,30.08,ESE,109,0.0,0.0,79,0.00,,---,0.00,0.00,VWS V14.00,2013-09-14 04:46:00,
2013-09-14 00:51:00,53.7,47.3,30.08,ESE,109,0.0,1.0,79,0.00,,---,0.00,0.00,VWS V14.00,2013-09-14 04:51:00,
2013-09-14 00:56:00,53.5,47.2,30.08,ESE,109,0.0,0.0,79,0.00,,---,0.00,0.00,VWS V14.00,2013-09-14 04:56:00,
2013-09-14 01:01:00,53.4,47.4,30.08,ESE,109,0.0,0.0,80,0.00,,---,0.00,0.00,VWS V14.00,2013-09-14 05:01:00,
2013-09-14 01:06:00,53.2,47.2,30.08,ESE,107,0.0,2.0,80,0.00,,---,0.00,0.00,VWS V14.00,2013-09-14 05:06:00,
2013-09-14 01:11:00,53.1,47.4,30.08,ESE,107,0.0,1.0,81,0.00,,---,0.00,0.00,VWS V14.00,2013-09-14 05:11:00,
2013-09-14 01:16:00,53.0,47.3,30.08,ESE,107,1.0,2.0,81,0.00,,---,0.00,0.00,VWS V14.00,2013-09-14 05:16:00,
2013-09-14 01:21:00,52.8,47.1,30.08,ESE,106,0.0,2.0,81,0.00,,---,0.00,0.00,VWS V14.00,2013-09-14 05:21:00,
2013-09-14 01:26:00,52.7,47.4,30.08,ESE,110,0.0,3.0,82,0.00,,---,0.00,0.00,VWS V14.00,2013-09-14 05:26:00,
2013-09-14 01:31:00,52.7,47.4,30.08,ESE,111,0.0,4.0,82,0.00,,---,0.00,0.00,VWS V14.00,2013-09-14 05:31:00,
2013-09-14 01:36:00,52.6,47.3,30.08,ESE,111,0.0,3.0,82,0.00,,---,0.00,0.00,VWS V14.00,2013-09-14 05:36:00,
2013-09-14 01:41:00,52.6,47.6,30.08,ESE,111,0.0,1.0,83,0.00,,---,0.00,0.00,VWS V14.00,2013-09-14 05:41:00,
2013-09-14 01:46:00,52.5,47.5,30.08,ESE,115,0.0,4.0,83,0.00,,---,0.00,0.00,VWS V14.00,2013-09-14 05:46:00,
2013-09-14 01:51:00,52.4,47.4,30.08,ESE,119,0.0,4.0,83,0.00,,---,0.00,0.00,VWS V14.00,2013-09-14 05:51:00,
2013-09-14 01:56:00,52.4,47.4,30.08,ESE,117,0.0,0.0,83,0.00,,---,0.00,0.00,VWS V14.00,2013-09-14 05:56:00,
2013-09-14 02:01:00,52.2,47.2,30.08,ESE,117,0.0,1.0,83,0.00,,---,0.00,0.00,VWS V14.00,2013-09-14 06:01:00,
2013-09-14 02:06:00,52.1,47.1,30.08,ESE,117,0.0,0.0,83,0.00,,---,0.00,0.00,VWS V14.00,2013-09-14 06:06:00,
2013-09-14 02:11:00,51.9,47.2,30.08,ESE,117,0.0,0.0,84,0.00,,---,0.00,0.00,VWS V14.00,2013-09-14 06:11:00,
2013-09-14 02:16:00,51.8,47.1,30.08,ESE,117,0.0,0.0,84,0.00,,---,0.00,0.00,VWS V14.00,2013-09-14 06:16:00,
2013-09-14 02:21:00,51.7,47.3,30.08,ESE,115,1.0,4.0,85,0.00,,---,0.00,0.00,VWS V14.00,2013-09-14 06:21:00,
2013-09-14 02:26:00,51.5,47.2,30.09,ESE,115,0.0,1.0,85,0.00,,---,0.00,0.00,VWS V14.00,2013-09-14 06:26:00,
2013-09-14 02:31:00,51.4,47.0,30.09,ESE,115,0.0,0.0,85,0.00,,---,0.00,0.00,VWS V14.00,2013-09-14 06:31:00,
2013-09-14 02:36:00,51.3,47.3,30.09,ESE,115,0.0,2.0,86,0.00,,---,0.00,0.00,VWS V14.00,2013-09-14 06:36:00,
2013-09-14 02:41:00,51.2,47.2,30.09,ESE,115,0.0,0.0,86,0.00,,---,0.00,0.00,VWS V14.00,2013-09-14 06:41:00,
2013-09-14 02:46:00,51.0,47.0,30.09,ESE,115,0.0,0.0,86,0.00,,---,0.00,0.00,VWS V14.00,2013-09-14 06:46:00,
2013-09-14 02:51:00,50.9,46.9,30.09,ESE,115,0.0,2.0,86,0.00,,---,0.00,0.00,VWS V14.00,2013-09-14 06:51:00,
2013-09-14 02:56:00,50.8,47.1,30.09,ESE,115,0.0,1.0,87,0.00,,---,0.00,0.00,VWS V14.00,2013-09-14 06:56:00,
2013-09-14 03:01:00,50.7,47.0,30.08,ESE,115,0.0,0.0,87,0.00,,---,0.00,0.00,VWS V14.00,2013-09-14 07:01:00,
2013-09-14 03:06:00,50.6,46.9,30.08,ESE,115,0.0,1.0,87,0.00,,---,0.00,0.00,VWS V14.00,2013-09-14 07:06:00,
2013-09-14 03:11:00,50.6,46.9,30.08,ESE,115,0.0,1.0,87,0.00,,---,0.00,0.00,VWS V14.00,2013-09-14 07:11:00,
2013-09-14 03:16:00,50.5,46.8,30.09,ESE,115,0.0,0.0,87,0.00,,---,0.00,0.00,VWS V14.00,2013-09-14 07:16:00,
2013-09-14 03:21:00,50.5,46.8,30.09,ESE,115,0.0,0.0,87,0.00,,---,0.00,0.00,VWS V14.00,2013-09-14 07:21:00,
2013-09-14 03:26:00,50.4,47.0,30.09,ESE,115,0.0,2.0,88,0.00,,---,0.00,0.00,VWS V14.00,2013-09-14 07:26:00,
2013-09-14 03:31:00,50.3,46.9,30.09,ESE,115,1.0,2.0,88,0.00,,---,0.00,0.00,VWS V14.00,2013-09-14 07:31:00,
2013-09-14 03:36:00,50.3,46.9,30.09,ESE,114,1.0,2.0,88,0.00,,---,0.00,0.00,VWS V14.00,2013-09-14 07:36:00,
2013-09-14 03:41:00,50.3,46.9,30.09,ESE,115,2.0,2.0,88,0.00,,---,0.00,0.00,VWS V14.00,2013-09-14 07:41:00,
2013-09-14 03:46:00,50.4,47.0,30.09,ESE,115,0.0,1.0,88,0.00,,---,0.00,0.00,VWS V14.00,2013-09-14 07:46:00,
2013-09-14 03:51:00,50.3,46.9,30.09,ESE,115,0.0,0.0,88,0.00,,---,0.00,0.00,VWS V14.00,2013-09-14 07:51:00,
2013-09-14 03:56:00,50.2,46.8,30.09,ESE,115,0.0,2.0,88,0.00,,---,0.00,0.00,VWS V14.00,2013-09-14 07:56:00,
2013-09-14 04:01:00,50.2,46.8,30.09,ESE,115,0.0,0.0,88,0.00,,---,0.00,0.00,VWS V14.00,2013-09-14 08:01:00,
2013-09-14 04:06:00,50.1,47.0,30.10,ESE,115,0.0,1.0,89,0.00,,---,0.00,0.00,VWS V14.00,2013-09-14 08:06:00,
2013-09-14 04:11:00,50.0,46.9,30.10,ESE,115,0.0,1.0,89,0.00,,---,0.00,0.00,VWS V14.00,2013-09-14 08:11:00,
2013-09-14 04:16:00,49.9,46.8,30.10,ESE,115,1.0,1.0,89,0.00,,---,0.00,0.00,VWS V14.00,2013-09-14 08:16:00,
2013-09-14 04:21:00,49.9,46.8,30.10,ESE,115,0.0,2.0,89,0.00,,---,0.00,0.00,VWS V14.00,2013-09-14 08:21:00,
2013-09-14 04:26:00,49.8,46.7,30.10,ESE,115,0.0,1.0,89,0.00,,---,0.00,0.00,VWS V14.00,2013-09-14 08:26:00,
2013-09-14 04:31:00,49.7,46.6,30.10,ESE,115,0.0,0.0,89,0.00,,---,0.00,0.00,VWS V14.00,2013-09-14 08:31:00,
2013-09-14 04:36:00,49.7,46.6,30.10,ESE,115,2.0,2.0,89,0.00,,---,0.00,0.00,VWS V14.00,2013-09-14 08:36:00,
2013-09-14 04:41:00,49.6,46.8,30.10,ESE,115,1.0,3.0,90,0.00,,---,0.00,0.00,VWS V14.00,2013-09-14 08:41:00,
2013-09-14 04:46:00,49.5,46.7,30.10,ESE,115,0.0,1.0,90,0.00,,---,0.00,0.00,VWS V14.00,2013-09-14 08:46:00,
2013-09-14 04:51:00,49.5,46.7,30.10,ESE,115,0.0,0.0,90,0.00,,---,0.00,0.00,VWS V14.00,2013-09-14 08:51:00,
2013-09-14 04:56:00,49.4,46.6,30.10,ESE,112,1.0,1.0,90,0.00,,---,0.00,0.00,VWS V14.00,2013-09-14 08:56:00,
2013-09-14 05:01:00,49.3,46.5,30.10,ESE,112,0.0,3.0,90,0.00,,---,0.00,0.00,VWS V14.00,2013-09-14 09:01:00,
2013-09-14 05:06:00,49.3,46.5,30.10,ESE,112,0.0,2.0,90,0.00,,---,0.00,0.00,VWS V14.00,2013-09-14 09:06:00,
2013-09-14 05:11:00,49.3,46.5,30.10,ESE,121,1.0,3.0,90,0.00,,---,0.00,0.00,VWS V14.00,2013-09-14 09:11:00,
2013-09-14 05:16:00,49.3,46.5,30.10,ESE,122,2.0,4.0,90,0.00,,---,0.00,0.00,VWS V14.00,2013-09-14 09:16:00,
2013-09-14 05:21:00,49.3,46.5,30.10,ESE,122,0.0,2.0,90,0.00,,---,0.00,0.00,VWS V14.00,2013-09-14 09:21:00,
2013-09-14 05:26:00,49.2,46.4,30.10,ESE,122,0.0,2.0,90,0.00,,---,0.00,0.00,VWS V14.00,2013-09-14 09:26:00,
2013-09-14 05:31:00,49.1,46.3,30.10,ESE,122,0.0,1.0,90,0.00,,---,0.00,0.00,VWS V14.00,2013-09-14 09:31:00,
2013-09-14 05:36:00,49.0,46.2,30.10,ESE,122,0.0,0.0,90,0.00,,---,0.00,0.00,VWS V14.00,2013-09-14 09:36:00,
2013-09-14 05:41:00,48.9,46.1,30.10,ESE,122,0.0,0.0,90,0.00,,---,0.00,0.00,VWS V14.00,2013-09-14 09:41:00,
2013-09-14 05:46:00,48.8,46.0,30.10,ESE,122,0.0,1.0,90,0.00,,---,0.00,0.00,VWS V14.00,2013-09-14 09:46:00,
2013-09-14 05:51:00,48.7,45.9,30.10,ESE,120,0.0,0.0,90,0.00,,---,0.00,0.00,VWS V14.00,2013-09-14 09:51:00,
2013-09-14 05:56:00,48.6,46.1,30.10,ESE,120,0.0,0.0,91,0.00,,---,0.00,0.00,VWS V14.00,2013-09-14 09:56:00,
2013-09-14 06:01:00,48.6,46.1,30.10,ESE,120,0.0,0.0,91,0.00,,---,0.00,0.00,VWS V14.00,2013-09-14 10:01:00,
2013-09-14 06:06:00,48.5,46.0,30.10,ESE,120,0.0,0.0,91,0.00,,---,0.00,0.00,VWS V14.00,2013-09-14 10:06:00,
2013-09-14 06:11:00,48.4,45.9,30.11,ESE,120,0.0,0.0,91,0.00,,---,0.00,0.00,VWS V14.00,2013-09-14 10:11:00,
2013-09-14 06:16:00,48.3,45.8,30.10,ESE,120,0.0,0.0,91,0.00,,---,0.00,0.00,VWS V14.00,2013-09-14 10:16:00,
2013-09-14 06:21:00,48.2,45.7,30.10,ESE,120,0.0,1.0,91,0.00,,---,0.00,0.00,VWS V14.00,2013-09-14 10:21:00,
2013-09-14 06:26:00,48.1,45.6,30.10,ESE,120,0.0,0.0,91,0.00,,---,0.00,0.00,VWS V14.00,2013-09-14 10:26:00,
2013-09-14 06:31:00,48.1,45.6,30.11,ESE,121,0.0,0.0,91,0.00,,---,0.00,0.00,VWS V14.00,2013-09-14 10:31:00,
2013-09-14 06:36:00,48.0,45.5,30.11,ESE,120,0.0,0.0,91,0.00,,---,0.00,0.00,VWS V14.00,2013-09-14 10:36:00,
2013-09-14 06:41:00,47.9,45.4,30.11,ESE,121,0.0,0.0,91,0.00,,---,0.00,0.00,VWS V14.00,2013-09-14 10:41:00,
2013-09-14 06:46:00,47.8,45.3,30.11,ESE,123,1.0,4.0,91,0.00,,---,0.00,0.00,VWS V14.00,2013-09-14 10:46:00,
2013-09-14 06:51:00,47.8,45.3,30.11,SE,130,0.0,5.0,91,0.00,,---,0.00,0.00,VWS V14.00,2013-09-14 10:51:00,
2013-09-14 06:56:00,47.8,45.3,30.11,SE,130,0.0,0.0,91,0.00,,---,0.00,0.00,VWS V14.00,2013-09-14 10:56:00,
2013-09-14 07:01:00,47.8,45.3,30.11,ESE,120,3.0,3.0,91,0.00,,---,0.00,0.00,VWS V14.00,2013-09-14 11:01:00,
2013-09-14 07:06:00,47.8,45.3,30.12,ESE,120,0.0,0.0,91,0.00,,---,0.00,0.00,VWS V14.00,2013-09-14 11:06:00,
2013-09-14 07:12:00,47.7,45.2,30.12,ESE,120,0.0,0.0,91,0.00,,---,0.00,0.00,VWS V14.00,2013-09-14 11:12:00,
2013-09-14 07:17:00,47.6,45.1,30.12,ESE,120,0.0,0.0,91,0.00,,---,0.00,0.00,VWS V14.00,2013-09-14 11:17:00,
2013-09-14 07:22:00,47.4,44.9,30.12,ESE,120,0.0,0.0,91,0.00,,---,0.00,5.00,VWS V14.00,2013-09-14 11:22:00,
2013-09-14 07:27:00,47.5,45.0,30.12,ESE,120,0.0,0.0,91,0.00,,---,0.00,7.00,VWS V14.00,2013-09-14 11:27:00,
2013-09-14 07:32:00,47.5,45.0,30.13,ESE,120,0.0,0.0,91,0.00,,---,0.00,9.00,VWS V14.00,2013-09-14 11:32:00,
2013-09-14 07:37:00,47.5,45.0,30.13,ESE,120,0.0,2.0,91,0.00,,---,0.00,11.00,VWS V14.00,2013-09-14 11:37:00,
2013-09-14 07:42:00,47.6,45.1,30.13,ESE,120,0.0,3.0,91,0.00,,---,0.00,12.00,VWS V14.00,2013-09-14 11:42:00,
2013-09-14 07:47:00,47.6,45.1,30.13,ESE,120,0.0,1.0,91,0.00,,---,0.00,16.00,VWS V14.00,2013-09-14 11:47:00,
2013-09-14 07:52:00,47.7,45.2,30.14,SE,126,0.0,2.0,91,0.00,,---,0.00,19.00,VWS V14.00,2013-09-14 11:52:00,
2013-09-14 07:57:00,47.8,45.3,30.14,SE,126,0.0,2.0,91,0.00,,---,0.00,56.00,VWS V14.00,2013-09-14 11:57:00,
2013-09-14 08:02:00,48.2,45.7,30.14,SE,126,3.0,3.0,91,0.00,,---,0.00,72.00,VWS V14.00,2013-09-14 12:02:00,
2013-09-14 08:07:00,48.6,46.1,30.14,ESE,117,4.0,4.0,91,0.00,,---,0.00,88.00,VWS V14.00,2013-09-14 12:07:00,
2013-09-14 08:12:00,49.1,46.6,30.14,ESE,123,1.0,3.0,91,0.00,,---,0.00,104.00,VWS V14.00,2013-09-14 12:12:00,
2013-09-14 08:17:00,49.7,47.2,30.14,ESE,123,0.0,1.0,91,0.00,,---,0.00,120.00,VWS V14.00,2013-09-14 12:17:00,
2013-09-14 08:22:00,50.2,47.7,30.14,ESE,123,0.0,1.0,91,0.00,,---,0.00,134.00,VWS V14.00,2013-09-14 12:22:00,
2013-09-14 08:27:00,50.8,48.0,30.14,ESE,117,3.0,4.0,90,0.00,,---,0.00,148.00,VWS V14.00,2013-09-14 12:27:00,
2013-09-14 08:32:00,51.1,48.0,30.14,East,98,0.0,3.0,89,0.00,,---,0.00,158.00,VWS V14.00,2013-09-14 12:32:00,
2013-09-14 08:37:00,51.4,48.0,30.14,ESE,116,0.0,4.0,88,0.00,,---,0.00,172.00,VWS V14.00,2013-09-14 12:37:00,
2013-09-14 08:42:00,51.5,47.8,30.14,WNW,284,1.0,4.0,87,0.00,,---,0.00,188.00,VWS V14.00,2013-09-14 12:42:00,
2013-09-14 08:47:00,51.6,47.9,30.15,East,82,0.0,4.0,87,0.00,,---,0.00,204.00,VWS V14.00,2013-09-14 12:47:00,
2013-09-14 08:52:00,51.9,48.2,30.15,East,82,0.0,1.0,87,0.00,,---,0.00,220.00,VWS V14.00,2013-09-14 12:52:00,
2013-09-14 08:57:00,52.2,48.2,30.15,East,82,0.0,3.0,86,0.00,,---,0.00,237.00,VWS V14.00,2013-09-14 12:57:00,
2013-09-14 09:02:00,52.6,48.5,30.15,ESE,117,0.0,6.0,86,0.00,,---,0.00,255.00,VWS V14.00,2013-09-14 13:02:00,
2013-09-14 09:07:00,52.9,48.2,30.15,East,101,2.0,4.0,84,0.00,,---,0.00,274.00,VWS V14.00,2013-09-14 13:07:00,
2013-09-14 09:12:00,53.2,48.5,30.15,SE,126,0.0,5.0,84,0.00,,---,0.00,295.00,VWS V14.00,2013-09-14 13:12:00,
2013-09-14 09:17:00,53.4,48.7,30.15,ESE,109,3.0,4.0,84,0.00,,---,0.00,316.00,VWS V14.00,2013-09-14 13:17:00,
2013-09-14 09:22:00,53.5,47.8,30.15,ESE,104,4.0,6.0,81,0.00,,---,0.00,336.00,VWS V14.00,2013-09-14 13:22:00,
2013-09-14 09:27:00,53.6,47.9,30.15,SE,129,1.0,7.0,81,0.00,,---,0.00,353.00,VWS V14.00,2013-09-14 13:27:00,
2013-09-14 09:32:00,53.6,47.9,30.15,ESE,120,5.0,6.0,81,0.00,,---,0.00,373.00,VWS V14.00,2013-09-14 13:32:00,
2013-09-14 09:37:00,53.9,48.5,30.16,East,86,2.0,5.0,82,0.00,,---,0.00,394.00,VWS V14.00,2013-09-14 13:37:00,
2013-09-14 09:42:00,54.4,48.7,30.16,ESE,104,1.0,4.0,81,0.00,,---,0.00,413.00,VWS V14.00,2013-09-14 13:42:00,
2013-09-14 09:47:00,54.5,48.5,30.16,NE,55,2.0,6.0,80,0.00,,---,0.00,427.00,VWS V14.00,2013-09-14 13:47:00,
2013-09-14 09:52:00,54.7,48.0,30.16,ESE,107,0.0,7.0,78,0.00,,---,0.00,445.00,VWS V14.00,2013-09-14 13:52:00,
2013-09-14 09:57:00,54.8,48.1,30.16,SE,128,5.0,7.0,78,0.00,,---,0.00,461.00,VWS V14.00,2013-09-14 13:57:00,
2013-09-14 10:02:00,55.1,49.0,30.16,East,101,1.0,5.0,80,0.00,,---,0.00,478.00,VWS V14.00,2013-09-14 14:02:00,
2013-09-14 10:07:00,55.3,48.9,30.17,ESE,113,0.0,7.0,79,0.00,,---,0.00,494.00,VWS V14.00,2013-09-14 14:07:00,
2013-09-14 10:12:00,55.5,48.4,30.16,ESE,104,3.0,6.0,77,0.00,,---,0.00,512.00,VWS V14.00,2013-09-14 14:12:00,
2013-09-14 10:17:00,55.8,49.0,30.16,East,93,0.0,3.0,78,0.00,,---,0.00,526.00,VWS V14.00,2013-09-14 14:17:00,
2013-09-14 10:22:00,56.2,49.4,30.17,East,98,3.0,7.0,78,0.00,,---,0.00,497.00,VWS V14.00,2013-09-14 14:22:00,
2013-09-14 10:27:00,56.5,48.7,30.16,ESE,120,4.0,6.0,75,0.00,,---,0.00,301.00,VWS V14.00,2013-09-14 14:27:00,
2013-09-14 10:32:00,56.6,48.1,30.16,ESE,122,4.0,9.0,73,0.00,,---,0.00,95.00,VWS V14.00,2013-09-14 14:32:00,
2013-09-14 10:37:00,56.9,48.3,30.16,ESE,116,6.0,6.0,73,0.00,,---,0.00,86.00,VWS V14.00,2013-09-14 14:37:00,
2013-09-14 10:42:00,57.1,48.2,30.16,ESE,115,2.0,6.0,72,0.00,,---,0.00,62.00,VWS V14.00,2013-09-14 14:42:00,
2013-09-14 10:47:00,57.5,48.2,30.17,ESE,106,4.0,7.0,71,0.00,,---,0.00,70.00,VWS V14.00,2013-09-14 14:47:00,
2013-09-14 10:52:00,57.8,47.7,30.17,ESE,103,2.0,8.0,69,0.00,,---,0.00,139.00,VWS V14.00,2013-09-14 14:52:00,
2013-09-14 10:57:00,58.0,47.9,30.16,NE,54,0.0,2.0,69,0.00,,---,0.00,174.00,VWS V14.00,2013-09-14 14:57:00,
2013-09-14 11:02:00,58.6,48.5,30.17,SW,220,0.0,2.0,69,0.00,,---,0.00,281.00,VWS V14.00,2013-09-14 15:02:00,
2013-09-14 11:07:00,59.0,47.7,30.16,NNE,15,0.0,6.0,66,0.00,,---,0.00,446.00,VWS V14.00,2013-09-14 15:07:00,
2013-09-14 11:12:00,59.0,48.5,30.16,WNW,286,1.0,4.0,68,0.00,,---,0.00,554.00,VWS V14.00,2013-09-14 15:12:00,
2013-09-14 11:17:00,59.3,47.1,30.16,SE,131,1.0,6.0,64,0.00,,---,0.00,429.00,VWS V14.00,2013-09-14 15:17:00,
2013-09-14 11:22:00,59.6,47.0,30.16,ENE,78,4.0,4.0,63,0.00,,---,0.00,49.00,VWS V14.00,2013-09-14 15:22:00,
2013-09-14 11:27:00,59.6,46.6,30.16,ESE,116,5.0,6.0,62,0.00,,---,0.00,56.00,VWS V14.00,2013-09-14 15:27:00,
2013-09-14 11:32:00,59.6,47.0,30.16,ESE,113,4.0,6.0,63,0.00,,---,0.00,58.00,VWS V14.00,2013-09-14 15:32:00,
2013-09-14 11:37:00,59.9,46.9,30.16,ENE,74,2.0,5.0,62,0.00,,---,0.00,56.00,VWS V14.00,2013-09-14 15:37:00,
2013-09-14 11:42:00,59.9,46.4,30.16,ESE,113,0.0,6.0,61,0.00,,---,0.00,67.00,VWS V14.00,2013-09-14 15:42:00,
2013-09-14 11:47:00,60.2,47.2,30.16,East,83,1.0,8.0,62,0.00,,---,0.00,63.00,VWS V14.00,2013-09-14 15:47:00,
2013-09-14 11:52:00,60.2,46.7,30.16,East,97,0.0,7.0,61,0.00,,---,0.00,139.00,VWS V14.00,2013-09-14 15:52:00,
2013-09-14 11:57:00,60.4,46.9,30.16,South,175,0.0,4.0,61,0.00,,---,0.00,276.00,VWS V14.00,2013-09-14 15:57:00,
2013-09-14 12:02:00,60.7,47.6,30.16,East,90,7.0,7.0,62,0.00,,---,0.00,204.00,VWS V14.00,2013-09-14 16:02:00,
2013-09-14 12:07:00,60.8,46.8,30.16,ESE,103,0.0,7.0,60,0.00,,---,0.00,613.00,VWS V14.00,2013-09-14 16:07:00,
2013-09-14 12:12:00,61.0,46.6,30.16,NNE,28,0.0,2.0,59,0.00,,---,0.00,652.00,VWS V14.00,2013-09-14 16:12:00,
2013-09-14 12:17:00,61.3,47.3,30.16,ESE,105,5.0,7.0,60,0.00,,---,0.00,687.00,VWS V14.00,2013-09-14 16:17:00,
2013-09-14 12:22:00,61.6,46.7,30.16,SSE,161,0.0,4.0,58,0.00,,---,0.00,547.00,VWS V14.00,2013-09-14 16:22:00,
2013-09-14 12:27:00,62.0,48.0,30.16,East,85,0.0,6.0,60,0.00,,---,0.00,40.00,VWS V14.00,2013-09-14 16:27:00,
2013-09-14 12:32:00,62.0,48.0,30.15,WSW,245,0.0,4.0,60,0.00,,---,0.00,40.00,VWS V14.00,2013-09-14 16:32:00,
2013-09-14 12:37:00,62.1,47.6,30.16,East,94,0.0,7.0,59,0.00,,---,0.00,40.00,VWS V14.00,2013-09-14 16:37:00,
2013-09-14 12:42:00,62.1,48.1,30.16,ESE,119,0.0,6.0,60,0.00,,---,0.00,40.00,VWS V14.00,2013-09-14 16:42:00,
2013-09-14 12:47:00,62.2,47.3,30.16,SE,128,2.0,8.0,58,0.00,,---,0.00,40.00,VWS V14.00,2013-09-14 16:47:00,
2013-09-14 12:52:00,61.9,46.0,30.16,West,259,0.0,6.0,56,0.00,,---,0.00,42.00,VWS V14.00,2013-09-14 16:52:00,
2013-09-14 12:57:00,61.7,46.8,30.16,ESE,111,2.0,5.0,58,0.00,,---,0.00,58.00,VWS V14.00,2013-09-14 16:57:00,
2013-09-14 13:02:00,62.0,46.1,30.15,SE,125,0.0,5.0,56,0.00,,---,0.00,513.00,VWS V14.00,2013-09-14 17:02:00,
2013-09-14 13:07:00,62.5,48.0,30.15,NNW,330,1.0,8.0,59,0.00,,---,0.00,847.00,VWS V14.00,2013-09-14 17:07:00,
2013-09-14 13:12:00,63.0,48.5,30.15,NNW,339,2.0,5.0,59,0.00,,---,0.00,861.00,VWS V14.00,2013-09-14 17:12:00,
2013-09-14 13:17:00,63.4,47.5,30.15,NW,317,0.0,2.0,56,0.00,,---,0.00,870.00,VWS V14.00,2013-09-14 17:17:00,
2013-09-14 13:22:00,63.9,48.4,30.15,ESE,108,5.0,6.0,57,0.00,,---,0.00,872.00,VWS V14.00,2013-09-14 17:22:00,
2013-09-14 13:27:00,63.9,48.4,30.15,SSE,154,0.0,5.0,57,0.00,,---,0.00,874.00,VWS V14.00,2013-09-14 17:27:00,
2013-09-14 13:32:00,64.3,49.2,30.15,NE,35,0.0,2.0,58,0.00,,---,0.00,872.00,VWS V14.00,2013-09-14 17:32:00,
2013-09-14 13:37:00,64.5,48.5,30.14,SSE,147,1.0,5.0,56,0.00,,---,0.00,874.00,VWS V14.00,2013-09-14 17:37:00,
2013-09-14 13:42:00,64.7,48.2,30.14,ESE,119,1.0,3.0,55,0.00,,---,0.00,875.00,VWS V14.00,2013-09-14 17:42:00,
2013-09-14 13:47:00,65.0,48.9,30.14,ESE,109,3.0,5.0,56,0.00,,---,0.00,874.00,VWS V14.00,2013-09-14 17:47:00,
2013-09-14 13:52:00,65.2,49.6,30.14,North,9,0.0,2.0,57,0.00,,---,0.00,874.00,VWS V14.00,2013-09-14 17:52:00,
2013-09-14 13:57:00,65.3,49.7,30.14,NNE,32,1.0,5.0,57,0.00,,---,0.00,870.00,VWS V14.00,2013-09-14 17:57:00,
2013-09-14 14:02:00,65.5,48.9,30.14,East,84,2.0,2.0,55,0.00,,---,0.00,872.00,VWS V14.00,2013-09-14 18:02:00,
2013-09-14 14:07:00,65.8,49.7,30.14,North,10,3.0,5.0,56,0.00,,---,0.00,870.00,VWS V14.00,2013-09-14 18:07:00,
2013-09-14 14:12:00,65.8,48.7,30.14,WNW,298,0.0,6.0,54,0.00,,---,0.00,865.00,VWS V14.00,2013-09-14 18:12:00,
2013-09-14 14:17:00,65.7,49.1,30.13,WNW,290,1.0,5.0,55,0.00,,---,0.00,863.00,VWS V14.00,2013-09-14 18:17:00,
2013-09-14 14:22:00,65.8,48.7,30.13,NW,314,0.0,3.0,54,0.00,,---,0.00,856.00,VWS V14.00,2013-09-14 18:22:00,
2013-09-14 14:27:00,66.0,49.4,30.13,NE,43,0.0,5.0,55,0.00,,---,0.00,856.00,VWS V14.00,2013-09-14 18:27:00,
2013-09-14 14:32:00,66.3,49.7,30.13,NNW,333,0.0,2.0,55,0.00,,---,0.00,854.00,VWS V14.00,2013-09-14 18:32:00,
2013-09-14 14:37:00,66.4,48.8,30.13,NW,304,1.0,8.0,53,0.00,,---,0.00,851.00,VWS V14.00,2013-09-14 18:37:00,
2013-09-14 14:42:00,66.3,49.2,30.13,SE,131,2.0,3.0,54,0.00,,---,0.00,840.00,VWS V14.00,2013-09-14 18:42:00,
2013-09-14 14:47:00,66.5,49.4,30.12,NW,309,4.0,7.0,54,0.00,,---,0.00,835.00,VWS V14.00,2013-09-14 18:47:00,
2013-09-14 14:52:00,66.6,49.5,30.12,NW,321,0.0,6.0,54,0.00,,---,0.00,830.00,VWS V14.00,2013-09-14 18:52:00,
2013-09-14 14:57:00,67.0,50.8,30.12,NNE,19,0.0,3.0,56,0.00,,---,0.00,826.00,VWS V14.00,2013-09-14 18:57:00,
2013-09-14 15:02:00,67.2,50.0,30.12,ENE,60,4.0,6.0,54,0.00,,---,0.00,816.00,VWS V14.00,2013-09-14 19:02:00,
2013-09-14 15:07:00,67.2,50.0,30.12,SE,135,4.0,7.0,54,0.00,,---,0.00,816.00,VWS V14.00,2013-09-14 19:07:00,
2013-09-14 15:12:00,67.4,49.2,30.11,East,80,3.0,6.0,52,0.00,,---,0.00,807.00,VWS V14.00,2013-09-14 19:12:00,
2013-09-14 15:17:00,67.6,49.9,30.11,NNE,20,4.0,5.0,53,0.00,,---,0.00,800.00,VWS V14.00,2013-09-14 19:17:00,
2013-09-14 15:22:00,67.4,49.2,30.11,North,9,0.0,8.0,52,0.00,,---,0.00,789.00,VWS V14.00,2013-09-14 19:22:00,
2013-09-14 15:27:00,67.2,49.5,30.11,ENE,66,4.0,5.0,53,0.00,,---,0.00,779.00,VWS V14.00,2013-09-14 19:27:00,
2013-09-14 15:32:00,67.1,48.9,30.11,NNE,32,0.0,4.0,52,0.00,,---,0.00,773.00,VWS V14.00,2013-09-14 19:32:00,
2013-09-14 15:37:00,67.1,48.9,30.11,ESE,107,0.0,5.0,52,0.00,,---,0.00,761.00,VWS V14.00,2013-09-14 19:37:00,
2013-09-14 15:42:00,67.5,48.8,30.11,WSW,244,2.0,5.0,51,0.00,,---,0.00,752.00,VWS V14.00,2013-09-14 19:42:00,
2013-09-14 15:47:00,68.5,51.2,30.10,ESE,123,6.0,6.0,54,0.00,,---,0.00,742.00,VWS V14.00,2013-09-14 19:47:00,
2013-09-14 15:52:00,68.8,50.5,30.11,ESE,104,7.0,7.0,52,0.00,,---,0.00,731.00,VWS V14.00,2013-09-14 19:52:00,
2013-09-14 15:58:00,68.4,49.1,30.11,ESE,109,0.0,8.0,50,0.00,,---,0.00,719.00,VWS V14.00,2013-09-14 19:58:00,
2013-09-14 16:03:00,68.3,49.5,30.10,East,91,0.0,4.0,51,0.00,,---,0.00,712.00,VWS V14.00,2013-09-14 20:03:00,
2013-09-14 16:08:00,68.5,50.2,30.10,NW,313,4.0,4.0,52,0.00,,---,0.00,698.00,VWS V14.00,2013-09-14 20:08:00,
2013-09-14 16:13:00,68.8,50.0,30.10,ESE,106,1.0,2.0,51,0.00,,---,0.00,687.00,VWS V14.00,2013-09-14 20:13:00,
2013-09-14 16:18:00,69.1,49.7,30.10,East,90,4.0,5.0,50,0.00,,---,0.00,673.00,VWS V14.00,2013-09-14 20:18:00,
2013-09-14 16:23:00,69.2,50.3,30.10,ESE,109,1.0,6.0,51,0.00,,---,0.00,661.00,VWS V14.00,2013-09-14 20:23:00,
2013-09-14 16:28:00,68.8,49.4,30.10,NNE,16,0.0,6.0,50,0.00,,---,0.00,647.00,VWS V14.00,2013-09-14 20:28:00,
2013-09-14 16:33:00,68.8,50.5,30.10,WNW,300,1.0,1.0,52,0.00,,---,0.00,635.00,VWS V14.00,2013-09-14 20:33:00,
2013-09-14 16:38:00,69.1,49.2,30.10,NW,309,3.0,6.0,49,0.00,,---,0.00,622.00,VWS V14.00,2013-09-14 20:38:00,
2013-09-14 16:43:00,69.2,50.8,30.09,ESE,109,0.0,4.0,52,0.00,,---,0.00,606.00,VWS V14.00,2013-09-14 20:43:00,
2013-09-14 16:48:00,69.1,49.7,30.09,East,80,1.0,5.0,50,0.00,,---,0.00,591.00,VWS V14.00,2013-09-14 20:48:00,
2013-09-14 16:53:00,69.2,49.8,30.09,ESE,107,0.0,5.0,50,0.00,,---,0.00,578.00,VWS V14.00,2013-09-14 20:53:00,
2013-09-14 16:58:00,69.4,48.9,30.09,NE,48,0.0,4.0,48,0.00,,---,0.00,563.00,VWS V14.00,2013-09-14 20:58:00,
2013-09-14 17:03:00,69.5,50.1,30.09,ESE,115,0.0,5.0,50,0.00,,---,0.00,548.00,VWS V14.00,2013-09-14 21:03:00,
2013-09-14 17:08:00,69.4,48.3,30.09,ESE,107,2.0,4.0,47,0.00,,---,0.00,508.00,VWS V14.00,2013-09-14 21:08:00,
2013-09-14 17:13:00,69.1,49.7,30.09,SE,128,1.0,5.0,50,0.00,,---,0.00,520.00,VWS V14.00,2013-09-14 21:13:00,
2013-09-14 17:18:00,68.9,48.4,30.09,ESE,115,4.0,5.0,48,0.00,,---,0.00,506.00,VWS V14.00,2013-09-14 21:18:00,
2013-09-14 17:23:00,68.9,49.0,30.09,SE,130,1.0,1.0,49,0.00,,---,0.00,483.00,VWS V14.00,2013-09-14 21:23:00,
2013-09-14 17:28:00,69.0,49.6,30.09,NNW,342,0.0,2.0,50,0.00,,---,0.00,476.00,VWS V14.00,2013-09-14 21:28:00,
2013-09-14 17:33:00,69.4,49.4,30.08,NNW,342,0.0,0.0,49,0.00,,---,0.00,468.00,VWS V14.00,2013-09-14 21:33:00,
2013-09-14 17:38:00,69.8,49.2,30.08,East,92,1.0,4.0,48,0.00,,---,0.00,468.00,VWS V14.00,2013-09-14 21:38:00,
2013-09-14 17:43:00,69.8,49.2,30.08,SE,134,0.0,4.0,48,0.00,,---,0.00,459.00,VWS V14.00,2013-09-14 21:43:00,
2013-09-14 17:48:00,69.9,49.3,30.08,ESE,102,2.0,6.0,48,0.00,,---,0.00,438.00,VWS V14.00,2013-09-14 21:48:00,
2013-09-14 17:53:00,69.7,48.6,30.08,ESE,118,0.0,4.0,47,0.00,,---,0.00,313.00,VWS V14.00,2013-09-14 21:53:00,
2013-09-14 17:58:00,69.4,48.3,30.09,ESE,119,0.0,1.0,47,0.00,,---,0.00,285.00,VWS V14.00,2013-09-14 21:58:00,
2013-09-14 18:03:00,69.1,48.0,30.08,East,90,1.0,5.0,47,0.00,,---,0.00,218.00,VWS V14.00,2013-09-14 22:03:00,
2013-09-14 18:08:00,68.6,48.7,30.08,East,91,0.0,2.0,49,0.00,,---,0.00,285.00,VWS V14.00,2013-09-14 22:08:00,
2013-09-14 18:13:00,68.7,48.8,30.08,East,92,1.0,3.0,49,0.00,,---,0.00,309.00,VWS V14.00,2013-09-14 22:13:00,
2013-09-14 18:18:00,68.6,48.7,30.08,East,92,0.0,4.0,49,0.00,,---,0.00,281.00,VWS V14.00,2013-09-14 22:18:00,
2013-09-14 18:23:00,68.5,49.2,30.08,East,92,0.0,4.0,50,0.00,,---,0.00,90.00,VWS V14.00,2013-09-14 22:23:00,
2013-09-14 18:28:00,68.3,49.0,30.09,East,92,0.0,1.0,50,0.00,,---,0.00,93.00,VWS V14.00,2013-09-14 22:28:00,
2013-09-14 18:33:00,68.2,50.4,30.08,East,92,0.0,0.0,53,0.00,,---,0.00,179.00,VWS V14.00,2013-09-14 22:33:00,
2013-09-14 18:38:00,68.1,50.8,30.09,East,92,0.0,0.0,54,0.00,,---,0.00,111.00,VWS V14.00,2013-09-14 22:38:00,
2013-09-14 18:43:00,68.0,50.8,30.09,East,92,1.0,1.0,54,0.00,,---,0.00,195.00,VWS V14.00,2013-09-14 22:43:00,
2013-09-14 18:48:00,68.0,51.2,30.09,East,92,0.0,1.0,55,0.00,,---,0.00,185.00,VWS V14.00,2013-09-14 22:48:00,
2013-09-14 18:53:00,67.9,50.7,30.08,East,92,0.0,1.0,54,0.00,,---,0.00,156.00,VWS V14.00,2013-09-14 22:53:00,
2013-09-14 18:58:00,68.0,50.8,30.09,East,92,1.0,1.0,54,0.00,,---,0.00,128.00,VWS V14.00,2013-09-14 22:58:00,
2013-09-14 19:03:00,67.8,51.1,30.09,East,92,0.0,1.0,55,0.00,,---,0.00,114.00,VWS V14.00,2013-09-14 23:03:00,
2013-09-14 19:08:00,67.6,51.4,30.09,East,92,0.0,2.0,56,0.00,,---,0.00,102.00,VWS V14.00,2013-09-14 23:08:00,
2013-09-14 19:13:00,67.3,51.1,30.09,East,92,0.0,1.0,56,0.00,,---,0.00,88.00,VWS V14.00,2013-09-14 23:13:00,
2013-09-14 19:18:00,67.0,50.8,30.09,East,92,0.0,0.0,56,0.00,,---,0.00,72.00,VWS V14.00,2013-09-14 23:18:00,
2013-09-14 19:23:00,66.6,51.4,30.09,East,92,0.0,0.0,58,0.00,,---,0.00,42.00,VWS V14.00,2013-09-14 23:23:00,
2013-09-14 19:28:00,66.2,51.5,30.09,East,92,0.0,0.0,59,0.00,,---,0.00,35.00,VWS V14.00,2013-09-14 23:28:00,
2013-09-14 19:33:00,65.9,51.6,30.09,East,92,0.0,0.0,60,0.00,,---,0.00,30.00,VWS V14.00,2013-09-14 23:33:00,
2013-09-14 19:34:00,65.8,51.5,30.09,East,92,0.0,0.0,60,0.00,,---,0.00,30.00,VWS V14.00,2013-09-14 23:34:00,
2013-09-14 19:39:00,65.3,51.5,30.09,East,92,0.0,0.0,61,0.00,,---,0.00,12.00,VWS V14.00,2013-09-14 23:39:00,
2013-09-14 19:44:00,64.7,50.5,30.09,East,92,0.0,0.0,60,0.00,,---,0.00,5.00,VWS V14.00,2013-09-14 23:44:00,
2013-09-14 19:49:00,64.2,50.0,30.09,East,92,0.0,0.0,60,0.00,,---,0.00,0.00,VWS V14.00,2013-09-14 23:49:00,
2013-09-14 19:54:00,63.9,50.2,30.09,East,92,0.0,0.0,61,0.00,,---,0.00,0.00,VWS V14.00,2013-09-14 23:54:00,
2013-09-14 19:59:00,63.5,49.8,30.09,East,92,0.0,0.0,61,0.00,,---,0.00,0.00,VWS V14.00,2013-09-14 23:59:00,
2013-09-14 20:04:00,63.1,50.3,30.09,East,92,0.0,0.0,63,0.00,,---,0.00,0.00,VWS V14.00,2013-09-15 00:04:00,
2013-09-14 20:09:00,62.7,49.5,30.10,East,92,0.0,0.0,62,0.00,,---,0.00,0.00,VWS V14.00,2013-09-15 00:09:00,
2013-09-14 20:14:00,62.5,49.3,30.10,East,92,0.0,0.0,62,0.00,,---,0.00,0.00,VWS V14.00,2013-09-15 00:14:00,
2013-09-14 20:19:00,62.1,48.9,30.11,East,92,0.0,0.0,62,0.00,,---,0.00,0.00,VWS V14.00,2013-09-15 00:19:00,
2013-09-14 20:24:00,61.8,48.7,30.11,East,92,0.0,0.0,62,0.00,,---,0.00,0.00,VWS V14.00,2013-09-15 00:24:00,
2013-09-14 20:29:00,61.6,48.9,30.11,East,92,0.0,0.0,63,0.00,,---,0.00,0.00,VWS V14.00,2013-09-15 00:29:00,
2013-09-14 20:38:00,61.2,48.9,30.11,East,92,0.0,0.0,64,0.00,,---,0.00,0.00,VWS V14.00,2013-09-15 00:38:00,
2013-09-14 20:43:00,61.0,49.6,30.11,East,92,0.0,0.0,66,0.00,,---,0.00,0.00,VWS V14.00,2013-09-15 00:43:00,
2013-09-14 20:48:00,60.9,49.5,30.11,East,92,0.0,0.0,66,0.00,,---,0.00,0.00,VWS V14.00,2013-09-15 00:48:00,
2013-09-14 20:53:00,60.7,49.3,30.11,East,92,0.0,0.0,66,0.00,,---,0.00,0.00,VWS V14.00,2013-09-15 00:53:00,
2013-09-14 20:58:00,60.6,49.2,30.11,East,92,0.0,0.0,66,0.00,,---,0.00,0.00,VWS V14.00,2013-09-15 00:58:00,
2013-09-14 21:03:00,60.6,48.8,30.11,East,92,0.0,0.0,65,0.00,,---,0.00,0.00,VWS V14.00,2013-09-15 01:03:00,
2013-09-14 21:08:00,60.6,48.8,30.11,East,92,0.0,1.0,65,0.00,,---,0.00,0.00,VWS V14.00,2013-09-15 01:08:00,
2013-09-14 21:13:00,60.5,48.7,30.11,East,92,0.0,0.0,65,0.00,,---,0.00,0.00,VWS V14.00,2013-09-15 01:13:00,
2013-09-14 21:18:00,60.4,49.0,30.11,East,92,0.0,0.0,66,0.00,,---,0.00,0.00,VWS V14.00,2013-09-15 01:18:00,
2013-09-14 21:23:00,60.3,48.5,30.11,East,92,0.0,0.0,65,0.00,,---,0.00,0.00,VWS V14.00,2013-09-15 01:23:00,
2013-09-14 21:28:00,60.1,48.7,30.11,East,92,0.0,0.0,66,0.00,,---,0.00,0.00,VWS V14.00,2013-09-15 01:28:00,
2013-09-14 21:33:00,60.0,48.2,30.11,East,92,0.0,0.0,65,0.00,,---,0.00,0.00,VWS V14.00,2013-09-15 01:33:00,
2013-09-14 21:38:00,59.8,48.4,30.11,East,92,0.0,0.0,66,0.00,,---,0.00,0.00,VWS V14.00,2013-09-15 01:38:00,
2013-09-14 21:43:00,59.6,48.2,30.11,East,92,0.0,0.0,66,0.00,,---,0.00,0.00,VWS V14.00,2013-09-15 01:43:00,
2013-09-14 21:48:00,59.5,48.2,30.11,East,92,0.0,0.0,66,0.00,,---,0.00,0.00,VWS V14.00,2013-09-15 01:48:00,
2013-09-14 21:53:00,59.4,48.0,30.11,East,92,0.0,0.0,66,0.00,,---,0.00,0.00,VWS V14.00,2013-09-15 01:53:00,
2013-09-14 21:58:00,59.3,48.4,30.11,East,92,0.0,0.0,67,0.00,,---,0.00,0.00,VWS V14.00,2013-09-15 01:58:00,
2013-09-14 22:03:00,59.3,48.4,30.11,East,92,0.0,0.0,67,0.00,,---,0.00,0.00,VWS V14.00,2013-09-15 02:03:00,
2013-09-14 22:08:00,59.2,48.7,30.10,East,92,0.0,1.0,68,0.00,,---,0.00,0.00,VWS V14.00,2013-09-15 02:08:00,
2013-09-14 22:13:00,59.1,48.6,30.10,East,92,0.0,1.0,68,0.00,,---,0.00,0.00,VWS V14.00,2013-09-15 02:13:00,
2013-09-14 22:18:00,59.1,48.6,30.10,East,92,0.0,0.0,68,0.00,,---,0.00,0.00,VWS V14.00,2013-09-15 02:18:00,
2013-09-14 22:23:00,59.0,48.9,30.11,East,92,0.0,0.0,69,0.00,,---,0.00,0.00,VWS V14.00,2013-09-15 02:23:00,
2013-09-14 22:28:00,58.8,48.3,30.11,East,92,0.0,0.0,68,0.00,,---,0.00,0.00,VWS V14.00,2013-09-15 02:28:00,
2013-09-14 22:33:00,58.6,48.1,30.11,East,92,0.0,0.0,68,0.00,,---,0.00,0.00,VWS V14.00,2013-09-15 02:33:00,
2013-09-14 22:38:00,58.4,48.3,30.10,East,92,0.0,0.0,69,0.00,,---,0.00,0.00,VWS V14.00,2013-09-15 02:38:00,
2013-09-14 22:43:00,58.1,48.0,30.10,East,92,0.0,0.0,69,0.00,,---,0.00,0.00,VWS V14.00,2013-09-15 02:43:00,
2013-09-14 22:48:00,58.0,47.9,30.11,East,92,0.0,0.0,69,0.00,,---,0.00,0.00,VWS V14.00,2013-09-15 02:48:00,
2013-09-14 22:53:00,57.8,47.7,30.11,East,92,0.0,0.0,69,0.00,,---,0.00,0.00,VWS V14.00,2013-09-15 02:53:00,
2013-09-14 22:58:00,57.8,47.7,30.11,East,92,0.0,0.0,69,0.00,,---,0.00,0.00,VWS V14.00,2013-09-15 02:58:00,
2013-09-14 23:03:00,57.8,47.7,30.11,East,92,0.0,0.0,69,0.00,,---,0.00,0.00,VWS V14.00,2013-09-15 03:03:00,
2013-09-14 23:08:00,57.8,47.7,30.10,East,92,0.0,1.0,69,0.00,,---,0.00,0.00,VWS V14.00,2013-09-15 03:08:00,
2013-09-14 23:13:00,57.9,47.8,30.10,East,92,1.0,1.0,69,0.00,,---,0.00,0.00,VWS V14.00,2013-09-15 03:13:00,
2013-09-14 23:18:00,57.9,47.8,30.10,East,92,0.0,1.0,69,0.00,,---,0.00,0.00,VWS V14.00,2013-09-15 03:18:00,
2013-09-14 23:23:00,57.8,48.1,30.10,East,92,0.0,0.0,70,0.00,,---,0.00,0.00,VWS V14.00,2013-09-15 03:23:00,
2013-09-14 23:28:00,57.6,47.9,30.10,East,92,0.0,0.0,70,0.00,,---,0.00,0.00,VWS V14.00,2013-09-15 03:28:00,
2013-09-14 23:34:00,57.3,48.0,30.10,East,92,0.0,0.0,71,0.00,,---,0.00,0.00,VWS V14.00,2013-09-15 03:34:00,
2013-09-14 23:39:00,57.2,47.9,30.10,East,92,0.0,0.0,71,0.00,,---,0.00,0.00,VWS V14.00,2013-09-15 03:39:00,
2013-09-14 23:44:00,57.0,48.1,30.10,East,92,0.0,0.0,72,0.00,,---,0.00,0.00,VWS V14.00,2013-09-15 03:44:00,
2013-09-14 23:49:00,56.9,48.0,30.10,East,92,0.0,0.0,72,0.00,,---,0.00,0.00,VWS V14.00,2013-09-15 03:49:00,
2013-09-14 23:54:00,56.8,48.6,30.10,East,92,0.0,0.0,74,0.00,,---,0.00,0.00,VWS V14.00,2013-09-15 03:54:00,
2013-09-14 23:59:00,56.7,48.9,30.10,East,92,0.0,0.0,75,0.00,,---,0.00,0.00,VWS V14.00,2013-09-15 03:59:00,